RYR3558 LBSF-LBWN

Flight info

Callsign RYR3558
Flight time 0h 43m
Altitude 25000
Route GOL3T/27 GOL N605 TOTKA
Aircraft B38M/M-SDE1FGHILORVWXY/HB1

Departure

Time 2026-04-30 11:51
Airport Sofia Airport (LBSF)

Arrival

Time 2026-04-30 12:35
Airport Varna Airport (LBWN)
Time Latitude Longitude Altitude Speed Heading
2026-04-30 11:29 42.69197 23.39818 1746 ft 0 kts 15°
2026-04-30 11:34 42.69224 23.39828 1761 ft 5 kts 15°
2026-04-30 11:34 42.69257 23.39834 1739 ft 4 kts 352°
2026-04-30 11:35 42.69281 23.39804 1746 ft 6 kts 297°
2026-04-30 11:35 42.69296 23.39736 1739 ft 9 kts 287°
2026-04-30 11:35 42.69308 23.39652 1738 ft 10 kts 275°
2026-04-30 11:35 42.69335 23.39576 1738 ft 8 kts 316°
2026-04-30 11:36 42.69365 23.39556 1739 ft 2 kts 348°
2026-04-30 11:36 42.69383 23.39555 1743 ft 2 kts
2026-04-30 11:36 42.69415 23.39559 1738 ft 7 kts
2026-04-30 11:36 42.69468 23.39565 1742 ft 8 kts
2026-04-30 11:37 42.69553 23.39589 1746 ft 12 kts 30°
2026-04-30 11:37 42.69579 23.39670 1746 ft 10 kts 95°
2026-04-30 11:37 42.69573 23.39780 1746 ft 15 kts 95°
2026-04-30 11:37 42.69563 23.39939 1743 ft 16 kts 95°
2026-04-30 11:38 42.69556 23.40076 1747 ft 13 kts 93°
2026-04-30 11:38 42.69549 23.40207 1739 ft 14 kts 94°
2026-04-30 11:38 42.69542 23.40337 1744 ft 14 kts 95°
2026-04-30 11:38 42.69534 23.40466 1741 ft 12 kts 94°
2026-04-30 11:39 42.69530 23.40551 1745 ft 7 kts 95°
2026-04-30 11:39 42.69525 23.40621 1742 ft 9 kts 95°
2026-04-30 11:39 42.69518 23.40730 1742 ft 14 kts 95°
2026-04-30 11:39 42.69511 23.40849 1748 ft 15 kts 94°
2026-04-30 11:40 42.69502 23.41002 1748 ft 16 kts 94°
2026-04-30 11:40 42.69496 23.41126 1749 ft 10 kts 94°
2026-04-30 11:40 42.69491 23.41215 1747 ft 11 kts 94°
2026-04-30 11:40 42.69484 23.41352 1743 ft 19 kts 94°
2026-04-30 11:41 42.69472 23.41553 1749 ft 22 kts 95°
2026-04-30 11:41 42.69458 23.41754 1750 ft 22 kts 95°
2026-04-30 11:41 42.69445 23.41966 1745 ft 22 kts 94°
2026-04-30 11:41 42.69436 23.42114 1745 ft 20 kts 95°
2026-04-30 11:42 42.69430 23.42221 1751 ft 18 kts 95°
2026-04-30 11:42 42.69419 23.42378 1743 ft 16 kts 95°
2026-04-30 11:42 42.69412 23.42521 1749 ft 15 kts 93°
2026-04-30 11:42 42.69404 23.42660 1745 ft 14 kts 95°
2026-04-30 11:43 42.69397 23.42781 1751 ft 10 kts 94°
2026-04-30 11:43 42.69393 23.42848 1746 ft 4 kts 95°
2026-04-30 11:43 42.69392 23.42864 1745 ft 0 kts 95°
2026-04-30 11:43 42.69388 23.42919 1751 ft 12 kts 95°
2026-04-30 11:44 42.69379 23.43061 1745 ft 18 kts 95°
2026-04-30 11:44 42.69369 23.43255 1752 ft 21 kts 94°
2026-04-30 11:44 42.69360 23.43418 1752 ft 4 kts 94°
2026-04-30 11:44 42.69359 23.43428 1752 ft 0 kts 94°
2026-04-30 11:46 42.69354 23.43505 1752 ft 14 kts 95°
2026-04-30 11:46 42.69348 23.43615 1746 ft 9 kts 94°
2026-04-30 11:46 42.69342 23.43700 1751 ft 9 kts 95°
2026-04-30 11:46 42.69338 23.43769 1776 ft 7 kts 95°
2026-04-30 11:47 42.69334 23.43834 1796 ft 7 kts 95°
2026-04-30 11:47 42.69340 23.43906 1803 ft 7 kts 67°
2026-04-30 11:47 42.69370 23.43945 1801 ft 5 kts 26°
2026-04-30 11:47 42.69388 23.43949 1804 ft 0 kts
2026-04-30 11:49 42.69398 23.43950 1801 ft 4 kts
2026-04-30 11:50 42.69428 23.43954 1803 ft 6 kts
2026-04-30 11:50 42.69477 23.43952 1803 ft 9 kts 348°
2026-04-30 11:50 42.69514 23.43901 1798 ft 7 kts 286°
2026-04-30 11:50 42.69524 23.43778 1795 ft 33 kts 276°
2026-04-30 11:51 42.69565 23.43158 1751 ft 96 kts 275°
2026-04-30 11:51 42.69632 23.42005 1748 ft 145 kts 274°
2026-04-30 11:51 42.69725 23.40552 1987 ft 159 kts 279°
2026-04-30 11:51 42.69837 23.38996 2354 ft 170 kts 279°
2026-04-30 11:52 42.69958 23.37335 2620 ft 190 kts 278°
2026-04-30 11:52 42.70129 23.35312 2694 ft 237 kts 279°
2026-04-30 11:52 42.70385 23.32953 3102 ft 267 kts 283°
2026-04-30 11:52 42.70696 23.30501 3619 ft 265 kts 281°
2026-04-30 11:53 42.71014 23.27989 4188 ft 270 kts 281°
2026-04-30 11:53 42.71432 23.25457 4736 ft 277 kts 296°
2026-04-30 11:53 42.72668 23.23514 5275 ft 271 kts 330°
2026-04-30 11:53 42.74463 23.22847 5824 ft 267 kts 357°
2026-04-30 11:54 42.76338 23.22903 6364 ft 272 kts
2026-04-30 11:54 42.78209 23.23119 6878 ft 273 kts
2026-04-30 11:54 42.80134 23.23383 7379 ft 277 kts
2026-04-30 11:54 42.82077 23.23687 7897 ft 287 kts
2026-04-30 11:55 42.84048 23.24022 8401 ft 288 kts
2026-04-30 11:55 42.86056 23.24471 8924 ft 295 kts 13°
2026-04-30 11:55 42.87864 23.25888 9485 ft 312 kts 45°
2026-04-30 11:55 42.89008 23.28466 10075 ft 327 kts 67°
2026-04-30 11:56 42.89739 23.31477 10542 ft 340 kts 73°
2026-04-30 11:56 42.90346 23.34554 10976 ft 342 kts 75°
2026-04-30 11:56 42.90948 23.37734 11418 ft 351 kts 75°
2026-04-30 11:56 42.91660 23.40934 11851 ft 356 kts 71°
2026-04-30 11:57 42.92437 23.44149 12292 ft 359 kts 72°
2026-04-30 11:57 42.93179 23.47424 12743 ft 362 kts 73°
2026-04-30 11:57 42.93892 23.50744 13195 ft 368 kts 73°
2026-04-30 11:57 42.94628 23.54095 13652 ft 370 kts 73°
2026-04-30 11:58 42.95392 23.57487 14098 ft 375 kts 73°
2026-04-30 11:58 42.96156 23.60905 14500 ft 377 kts 73°
2026-04-30 11:58 42.96916 23.64356 14916 ft 382 kts 73°
2026-04-30 11:58 42.97684 23.67853 15336 ft 385 kts 73°
2026-04-30 11:59 42.98463 23.71380 15768 ft 389 kts 73°
2026-04-30 11:59 42.99248 23.74932 16188 ft 392 kts 72°
2026-04-30 11:59 43.00036 23.78524 16634 ft 397 kts 73°
2026-04-30 11:59 43.00821 23.82101 17072 ft 399 kts 73°
2026-04-30 12:00 43.01622 23.85754 17507 ft 402 kts 73°
2026-04-30 12:00 43.02428 23.89432 17978 ft 407 kts 73°
2026-04-30 12:00 43.03239 23.93157 18432 ft 411 kts 73°
2026-04-30 12:00 43.04059 23.96913 18854 ft 416 kts 73°
2026-04-30 12:01 43.04887 24.00720 19256 ft 416 kts 73°
2026-04-30 12:01 43.05716 24.04537 19666 ft 421 kts 73°
2026-04-30 12:01 43.06269 24.07088 19938 ft 421 kts 73°
2026-04-30 12:01 43.07107 24.10959 20359 ft 426 kts 73°
2026-04-30 12:02 43.07551 24.14970 20804 ft 429 kts 87°
2026-04-30 12:02 43.07715 24.19070 21240 ft 433 kts 88°
2026-04-30 12:02 43.07903 24.23202 21670 ft 438 kts 86°
2026-04-30 12:02 43.08167 24.27364 22127 ft 441 kts 85°
2026-04-30 12:03 43.08432 24.31577 22562 ft 445 kts 85°
2026-04-30 12:03 43.08872 24.40082 23487 ft 452 kts 85°
2026-04-30 12:03 43.09110 24.44391 23956 ft 453 kts 85°
2026-04-30 12:04 43.09353 24.48673 24346 ft 452 kts 86°
2026-04-30 12:04 43.09585 24.52973 24747 ft 455 kts 86°
2026-04-30 12:04 43.09812 24.57325 25020 ft 462 kts 86°
2026-04-30 12:04 43.10044 24.61718 25025 ft 461 kts 86°
2026-04-30 12:05 43.10274 24.66032 25015 ft 462 kts 86°
2026-04-30 12:05 43.10506 24.70419 25023 ft 462 kts 86°
2026-04-30 12:05 43.10731 24.74786 25021 ft 457 kts 86°
2026-04-30 12:05 43.10954 24.79131 25022 ft 458 kts 86°
2026-04-30 12:06 43.11177 24.83478 25008 ft 458 kts 86°
2026-04-30 12:06 43.11400 24.87853 25010 ft 459 kts 86°
2026-04-30 12:06 43.11619 24.92204 25009 ft 459 kts 86°
2026-04-30 12:06 43.11838 24.96576 25009 ft 459 kts 86°
2026-04-30 12:07 43.12050 25.00863 25009 ft 459 kts 86°
2026-04-30 12:07 43.12265 25.05224 25007 ft 459 kts 86°
2026-04-30 12:07 43.12479 25.09587 25006 ft 459 kts 86°
2026-04-30 12:07 43.12691 25.13947 24984 ft 458 kts 87°
2026-04-30 12:08 43.12900 25.18292 24983 ft 458 kts 87°
2026-04-30 12:08 43.13105 25.22604 24983 ft 459 kts 87°
2026-04-30 12:08 43.13311 25.26950 25084 ft 458 kts 87°
2026-04-30 12:08 43.13517 25.31324 25175 ft 460 kts 87°
2026-04-30 12:09 43.13721 25.35699 25208 ft 462 kts 87°
2026-04-30 12:09 43.13923 25.40083 25207 ft 461 kts 87°
2026-04-30 12:09 43.14125 25.44483 25211 ft 461 kts 87°
2026-04-30 12:09 43.14324 25.48869 25210 ft 461 kts 87°
2026-04-30 12:10 43.14522 25.53254 25210 ft 462 kts 87°
2026-04-30 12:10 43.14718 25.57640 25208 ft 461 kts 87°
2026-04-30 12:10 43.14912 25.62019 25208 ft 460 kts 87°
2026-04-30 12:10 43.15103 25.66386 25206 ft 460 kts 87°
2026-04-30 12:11 43.15291 25.70703 25208 ft 460 kts 87°
2026-04-30 12:11 43.15480 25.75076 25209 ft 460 kts 87°
2026-04-30 12:11 43.15667 25.79461 25132 ft 462 kts 88°
2026-04-30 12:11 43.15850 25.83829 25123 ft 459 kts 88°
2026-04-30 12:12 43.16035 25.88211 24978 ft 460 kts 88°
2026-04-30 12:12 43.16219 25.92565 24805 ft 457 kts 88°
2026-04-30 12:12 43.16400 25.96956 24800 ft 468 kts 88°
2026-04-30 12:12 43.16581 26.01484 24809 ft 483 kts 88°
2026-04-30 12:13 43.16769 26.06101 24803 ft 486 kts 88°
2026-04-30 12:13 43.16957 26.10720 24486 ft 482 kts 88°
2026-04-30 12:13 43.17138 26.15283 24081 ft 475 kts 88°
2026-04-30 12:13 43.17312 26.19756 23747 ft 465 kts 88°
2026-04-30 12:14 43.17482 26.24144 23285 ft 457 kts 88°
2026-04-30 12:14 43.17649 26.28468 22793 ft 451 kts 88°
2026-04-30 12:14 43.17811 26.32731 22295 ft 446 kts 88°
2026-04-30 12:14 43.17968 26.36899 21795 ft 441 kts 88°
2026-04-30 12:15 43.18124 26.41063 21288 ft 437 kts 88°
2026-04-30 12:15 43.18277 26.45220 20784 ft 433 kts 88°
2026-04-30 12:15 43.18428 26.49315 20281 ft 429 kts 89°
2026-04-30 12:15 43.18575 26.53380 19901 ft 425 kts 89°
2026-04-30 12:16 43.18719 26.57410 19482 ft 421 kts 89°
2026-04-30 12:16 43.18862 26.61409 19013 ft 417 kts 89°
2026-04-30 12:16 43.19001 26.65357 18559 ft 413 kts 89°
2026-04-30 12:16 43.19137 26.69274 18046 ft 409 kts 89°
2026-04-30 12:17 43.19403 26.76998 17039 ft 401 kts 89°
2026-04-30 12:17 43.19530 26.80753 16539 ft 397 kts 88°
2026-04-30 12:17 43.19656 26.84522 16062 ft 394 kts 88°
2026-04-30 12:18 43.19780 26.88253 15589 ft 390 kts 88°
2026-04-30 12:18 43.19902 26.91946 15130 ft 386 kts 88°
2026-04-30 12:18 43.20020 26.95602 14688 ft 382 kts 88°
2026-04-30 12:18 43.20137 26.99223 14244 ft 378 kts 88°
2026-04-30 12:19 43.20252 27.02816 13785 ft 374 kts 88°
2026-04-30 12:19 43.20749 27.06289 13290 ft 370 kts 68°
2026-04-30 12:19 43.21934 27.09330 12827 ft 364 kts 52°
2026-04-30 12:19 43.23577 27.11991 12368 ft 358 kts 45°
2026-04-30 12:20 43.25245 27.14450 11934 ft 355 kts 46°
2026-04-30 12:20 43.26801 27.17110 11474 ft 352 kts 53°
2026-04-30 12:20 43.28114 27.19874 11039 ft 348 kts 62°
2026-04-30 12:20 43.28889 27.22991 10613 ft 345 kts 81°
2026-04-30 12:21 43.28954 27.26252 10201 ft 340 kts 98°
2026-04-30 12:21 43.28408 27.29380 9741 ft 335 kts 109°
2026-04-30 12:21 43.27699 27.32411 9258 ft 332 kts 108°
2026-04-30 12:21 43.27158 27.35479 8801 ft 330 kts 100°
2026-04-30 12:22 43.26912 27.38497 7744 ft 311 kts 93°
2026-04-30 12:22 43.26817 27.41355 6944 ft 288 kts 93°
2026-04-30 12:22 43.26637 27.44021 6223 ft 271 kts 97°
2026-04-30 12:22 43.26381 27.46502 5985 ft 262 kts 98°
2026-04-30 12:23 43.26149 27.48946 5971 ft 246 kts 97°
2026-04-30 12:23 43.25951 27.51153 5972 ft 226 kts 97°
2026-04-30 12:23 43.25760 27.53299 5978 ft 222 kts 96°
2026-04-30 12:23 43.25642 27.55393 5980 ft 222 kts 84°
2026-04-30 12:24 43.26120 27.57389 5997 ft 224 kts 58°
2026-04-30 12:24 43.27198 27.58905 5847 ft 224 kts 32°
2026-04-30 12:24 43.28663 27.59596 5714 ft 226 kts
2026-04-30 12:24 43.30210 27.59320 5573 ft 226 kts 339°
2026-04-30 12:25 43.31448 27.58168 5504 ft 210 kts 314°
2026-04-30 12:25 43.32354 27.56577 5419 ft 212 kts 307°
2026-04-30 12:25 43.33200 27.54943 5309 ft 210 kts 306°
2026-04-30 12:25 43.33948 27.53219 5171 ft 212 kts 290°
2026-04-30 12:26 43.34253 27.51251 5030 ft 212 kts 277°
2026-04-30 12:26 43.34435 27.49255 4885 ft 208 kts 276°
2026-04-30 12:26 43.34608 27.47244 4733 ft 216 kts 276°
2026-04-30 12:26 43.34691 27.45222 4577 ft 212 kts 263°
2026-04-30 12:27 43.34212 27.43377 4396 ft 207 kts 233°
2026-04-30 12:27 43.33160 27.42071 4246 ft 202 kts 203°
2026-04-30 12:27 43.31823 27.41643 4095 ft 197 kts 174°
2026-04-30 12:27 43.30556 27.42161 3991 ft 188 kts 144°
2026-04-30 12:28 43.29694 27.43442 3996 ft 183 kts 120°
2026-04-30 12:28 43.29091 27.44978 3997 ft 179 kts 115°
2026-04-30 12:28 43.28530 27.46508 3995 ft 181 kts 115°
2026-04-30 12:28 43.27965 27.48063 3996 ft 183 kts 115°
2026-04-30 12:29 43.27397 27.49609 3996 ft 182 kts 115°
2026-04-30 12:29 43.26851 27.51150 3995 ft 179 kts 110°
2026-04-30 12:29 43.26412 27.52748 3995 ft 180 kts 108°
2026-04-30 12:29 43.26016 27.54383 3998 ft 179 kts 106°
2026-04-30 12:30 43.25653 27.56043 3799 ft 184 kts 105°
2026-04-30 12:30 43.25394 27.57637 3562 ft 160 kts 98°
2026-04-30 12:30 43.25254 27.59109 3351 ft 156 kts 97°
2026-04-30 12:30 43.25127 27.60537 3146 ft 149 kts 96°
2026-04-30 12:31 43.25001 27.61966 2945 ft 151 kts 96°
2026-04-30 12:31 43.24877 27.63375 2761 ft 146 kts 97°
2026-04-30 12:31 43.24752 27.64782 2575 ft 151 kts 96°
2026-04-30 12:31 43.24628 27.66175 2383 ft 146 kts 95°
2026-04-30 12:32 43.24505 27.67576 2182 ft 148 kts 96°
2026-04-30 12:32 43.24379 27.68996 1984 ft 150 kts 95°
2026-04-30 12:32 43.24254 27.70408 1773 ft 145 kts 94°
2026-04-30 12:32 43.24140 27.71773 1575 ft 148 kts 96°
2026-04-30 12:33 43.24017 27.73163 1378 ft 150 kts 95°
2026-04-30 12:33 43.23891 27.74576 1163 ft 150 kts 95°
2026-04-30 12:33 43.23767 27.75964 948 ft 137 kts 94°
2026-04-30 12:33 43.23652 27.77277 760 ft 141 kts 95°
2026-04-30 12:34 43.23539 27.78633 620 ft 142 kts 93°
2026-04-30 12:34 43.23420 27.80006 461 ft 140 kts 94°
2026-04-30 12:34 43.23297 27.81327 310 ft 136 kts 94°
2026-04-30 12:34 43.23190 27.82568 236 ft 115 kts 91°
2026-04-30 12:35 43.23128 27.83361 235 ft 47 kts 102°
2026-04-30 12:35 43.23103 27.83607 234 ft 18 kts 98°
2026-04-30 12:35 43.23091 27.83727 239 ft 8 kts 97°
2026-04-30 12:35 43.23086 27.83782 236 ft 5 kts 97°
2026-04-30 12:36 43.23083 27.83824 236 ft 9 kts 97°
2026-04-30 12:36 43.23076 27.83970 237 ft 17 kts 80°
2026-04-30 12:36 43.23136 27.84071 237 ft 11 kts 31°
2026-04-30 12:36 43.23201 27.84091 238 ft 11 kts 359°
2026-04-30 12:37 43.23274 27.84057 238 ft 12 kts 324°
2026-04-30 12:37 43.23317 27.83961 237 ft 13 kts 284°
2026-04-30 12:37 43.23330 27.83837 237 ft 13 kts 277°
2026-04-30 12:37 43.23342 27.83713 240 ft 12 kts 277°
2026-04-30 12:38 43.23352 27.83597 236 ft 12 kts 277°
2026-04-30 12:38 43.23361 27.83489 236 ft 9 kts 277°
2026-04-30 12:38 43.23368 27.83421 237 ft 7 kts 277°
2026-04-30 12:38 43.23378 27.83343 235 ft 11 kts 286°
2026-04-30 12:39 43.23396 27.83250 237 ft 11 kts 277°
2026-04-30 12:39 43.23405 27.83131 235 ft 11 kts 276°
2026-04-30 12:39 43.23416 27.83101 237 ft 1 kts 319°
2026-04-30 12:39 43.23445 27.83082 233 ft 7 kts 336°